Starlink 35248

operational
NORAD ID: 65598 Int'l Des: 2025-207 Owner: SPXS Country: US Constellation: starlink
NOTLE

Über Starlink 35248

Beschreibung wird geladen...

Live-Position

3D-Globus wird geladen...

Nächste Überflüge

Höhenverlauf

Altitude vs Time

uPlot chart will show altitude changes over time

Zweizeiliger Elementsatz

1 65598U 25207G 25354.25003472 -.02400656 00000-0 -10159+0 0 9991
2 65598 97.6040 60.2898 0001664 84.5773 252.2285 15.27258424 5949
Epoch: 20. Dez. 2025 • Age: 7 hours

Aktueller Status

Höhe 495.6 km
Geschwindigkeit 7.62 km/s
Subsatellitenpunkt 50.72°N, 132.59°E
Startdatum 13. Sept. 2025
Alter 0.2 years
Typ internet

Technische Details

Klassifizierung Payload
Masse 575.00 kg
Trockenmasse 530.00 kg
Gesamtmasse 575.00 kg
Länge 0.30 m
Durchmesser 4.10 m
Spannweite 29.00 m
Form Box + pan
Hersteller SPXS
Bus-Typ Starlink V2MO
Phasenstatus In Orbit
Besitzer/Staat SPXS/US

Große Konstellationen

Loading constellations...